User: anonymous   Login
Location: Minneapolis
(44.9800°N, 93.2640°W)
Time: 00:16:42
(UTC-05:00)
Language:

Iridium 96 - Orbit

View from above orbital plane
View from above orbital plane
View from above satellite
View from above satellite

Ground track
Ground track

The orbit data is extracted from the following two-line orbital elements,

1 27376U 02005E   18109.46258146  .00033341 -11524-5  34602-3 0  9998
2 27376  86.3839 183.7326 0302882  76.8090 286.6755 15.24134402861029
Epoch (UTC): 19 April 2018 11:06:07
Eccentricity: 0.0302882
inclination: 86.3839°
perigee height: 285 km
apogee height: 701 km
right ascension of ascending node: 183.7326°
argument of perigee: 76.8090°
revolutions per day: 15.24134402
mean anomaly at epoch: 286.6755°
orbit number at epoch: 86102

The dashed part of the orbit path shows where the satellite is in the earth's shadow,  

DLR